Über Neijiang
Group: 3 satellites
Beschreibung wird geladen...
Live-Position
3D-Globus wird geladen...
Nächste Überflüge
Höhenverlauf
Altitude vs Time
uPlot chart will show altitude changes over time
Zweizeiliger Elementsatz
1 63984U 25100C 26062.13998000 .00016435 00000-0 74146-3 0 9998
2 63984 97.3758 137.1960 0025219 359.7472 0.3747 15.20792575 44501
Epoch: 3. März 2026 •
Age: 14 hours
Aktueller Status
Höhe 532.2 km
Geschwindigkeit 7.59 km/s
Subsatellitenpunkt -42.71°S,
57.74°W
Startdatum 14. Mai 2025
Alter 0.8 years
Typ other
Technische Details
Klassifizierung Payload
Masse 50.00 kg
Trockenmasse 50.00 kg
Gesamtmasse 50.00 kg
Länge 0.30 m
Durchmesser 0.30 m
Spannweite 0.30 m
Form Box + 2 pan
Hersteller GUOX
Bus-Typ XSD
Phasenstatus In Orbit
Besitzer/Staat GUOX/ZJLAB/CN
Große Konstellationen
Loading constellations...